Reflectivity
-20 -20 -20 -20 -20 -20 -20 -20 -20 -20 -20 -20 -20 -20 -20 -20 -20 -20 -20 -20 -20 -20 -20 -20 -20 -20 -20 -20 -20 -20 -20 -20 -20 -19 8 7 -9 23 -5 13 -20 -20 -16 -20
-20 -20 -20 -20 -20 -20 -20 -20 -20 -20 -20 -20 -20 -20 -20 -20 -20 -20 -20 -20 -20 -20 -20 -20 -20 -20 -20 -20 -20 -9 -2 -7 -20 -20 -20 -20 -9 -7 -7 -19 -19 -20 -20 -17
-20 -20 -20 -20 -20 -20 -20 -20 -20 -20 -20 -20 -20 -20 -20 -20 -20 -20 -20 -20 -20 -20 -20 -20 -20 -20 -20 -20 -20 -20 -15 -16 -20 -20 -20 -20 13 4 1 -20 -20 -1 -15 -10
-20 -20 -20 -20 -20 -20 -20 -20 -20 -20 -20 -20 -20 -20 -20 -20 -20 -20 -20 -20 -20 -20 -20 -20 -20 -20 -20 -20 -20 -20 5 -20 -20 -20 -20 -20 -10 4 3 -20 -20 -10 4 -1
-20 -20 -20 -20 -20 -20 -20 -20 -20 -20 -20 -20 -20 -20 -20 -20 -20 -20 -20 -20 -20 -20 -20 -20 -20 -20 -20 -20 -20 -20 -15 -20 -20 -20 -20 -20 -20 -19 -6 -4 -16 -20 -20 -20
-20 -20 -20 -20 -20 -20 -20 -20 -20 -20 -20 -20 -20 -20 -20 -20 -20 -20 -20 -20 -20 -20 -20 -20 -20 -20 -20 -20 -20 -20 -20 -20 -20 -20 -20 -20 4 -0 19 19 -4 -20 -20 -20
-20 -20 -20 -20 -20 -20 -20 -20 -20 -20 -20 -20 -20 -20 -20 -20 -20 -20 -20 -20 -20 -20 -20 -20 -20 -20 -20 -20 -20 -20 -20 -20 -20 -20 -20 4 8 -0 -2 -0 -19 -20 -20 -20
-20 -20 -20 -20 -20 -20 -20 -20 -20 -20 -20 -20 -20 -20 -20 -20 -20 -20 -20 -20 -20 -20 -20 -20 -20 -20 -20 -20 -20 -20 -20 -20 -20 -20 -14 -1 -2 2 -5 2 -18 -20 -20 -20
-20 -20 -20 -20 -20 -20 -20 -20 -20 -20 -20 -20 -20 -20 -20 -20 -20 -20 -20 -20 -20 -20 -20 -20 -20 -20 -20 -20 -20 -20 -20 -20 -20 -20 2 4 -0 -20 -20 -2 -16 3 -8 -20
-20 -20 -20 -20 -20 -20 -20 -20 -20 -20 -20 -20 -20 -20 -20 -20 -20 -20 -20 -20 -20 -20 -20 -20 -20 -20 -20 -20 -20 -20 -20 -20 -20 1 31 5 -19 -15 -7 -1 -9 5 3 2
-20 -20 -20 -20 -20 -20 -20 -20 -20 -20 -20 -20 -20 -20 -20 -20 -20 -20 -20 -20 -20 -20 -20 -20 -20 -20 -20 -20 -20 -20 -17 1 -16 2 33 36 24 23 -17 -2 1 2 1 1
-20 -20 -20 -20 -20 -20 -20 -20 -20 -20 -20 -20 -20 -20 -20 -20 -20 -20 -20 -20 -20 -20 -20 -20 -20 -20 -20 -20 -20 -3 -16 -1 2 14 42 16 25 -20 -15 0 0 -0 -8 -20
-20 -20 -20 -20 -20 -20 -20 -20 -20 -20 -20 -20 -20 -20 -20 -20 -20 -20 -20 -20 -20 -20 -20 -20 -20 -20 -20 -20 -20 3 3 -3 6 8 1 26 3 -19 -1 7 5 4 -20 -20
-20 -20 -20 -20 -20 -20 -20 -20 -20 -20 -20 -12 -20 -12 -20 -20 -20 -20 -20 -20 -20 -20 -20 -20 -20 -20 -20 -20 -20 2 6 -20 -20 -4 8 3 -20 -10 3 -4 -11 -3 -16 -20
-20 -20 -20 -20 -20 -20 -20 -20 -20 -20 -20 -20 3 -14 -20 -20 -20 -20 -20 -20 -20 -20 -20 -20 -20 -20 -20 -20 -20 -20 -20 -20 -20 1 25 7 -3 2 4 1 -1 -13 -18 -20
-20 -20 -20 -20 -20 -20 -20 -20 -20 -20 -20 -13 -20 -20 -20 -20 -20 -20 -20 -20 -20 -20 -20 -20 -20 -20 -20 -20 -20 -20 -20 -20 -20 3 23 17 3 1 -8 -3 -0 -20 -20 -20
-20 -20 -20 -20 -20 -20 -20 -20 -20 -20 -20 -19 -12 -20 -20 -20 -20 -20 -20 -20 -20 -20 -20 -20 -20 -20 -20 -20 -20 -20 -20 -20 -20 4 4 3 -16 -5 0 6 -20 -20 -20 -20
-20 -20 -20 -20 -20 -20 -20 -20 -20 -20 -20 -20 -20 -20 -19 15 -20 -20 -20 -20 -20 -20 -20 -20 -20 -20 -20 -20 -20 -20 -20 -20 -20 -9 3 -4 14 14 14 9 11 1 -20 -19
-20 -20 -20 -20 -20 -20 -20 -20 -20 -20 -20 -20 -20 -5 20 -20 -20 -20 -20 -20 -20 -20 -20 -20 -20 -20 -20 -20 -20 -20 -20 -20 -20 -20 -17 29 17 -11 -6 9 7 1 -2 -9
-20 -20 -20 -20 -20 -20 -20 -20 -20 -20 -20 -20 -20 1 -20 -20 -20 -20 -20 -20 -20 -20 -4 -3 -20 -20 -20 -20 -20 -20 -20 -20 -20 -20 -20 -6 20 4 -1 12 7 -18 -16 2
-20 -20 -20 -20 -20 -13 -20 -20 -20 -20 -20 -20 -20 -20 -20 -20 -20 -20 -20 -20 -16 -20 -20 -2 -13 -20 -20 -20 -20 -20 -20 -20 -20 -2 -15 -16 0 4 4 -4 -10 6 15 0
-20 -20 -20 -20 -20 -20 -20 -20 -20 -20 -20 -20 -20 -20 -20 -20 -20 -20 -20 -20 -20 -20 -20 -16 -3 1 -3 -20 -20 -20 -20 -7 -9 -15 -11 -3 4 5 -20 -1 1 1 -3 9
-20 -20 -20 -20 -20 -20 -20 -20 -20 -20 -20 -20 -20 -20 -20 -20 -20 -20 -20 -20 -20 -20 -20 -20 -19 -4 -4 -20 -11 -12 -16 -9 -7 -20 -17 2 9 1 5 7 8 -16 -19 -20
-20 -20 -20 -20 -20 -19 -20 -20 -20 -20 -19 -19 -19 -20 -20 -20 -20 -20 -20 -20 -20 -20 -20 -20 -20 -8 -13 -2 -2 0 -0 -3 -11 -18 -20 -2 -3 -20 -20 4 -10 -20 -5 -18
-20 -20 -20 -20 -17 10 -18 -20 -20 -20 -16 -20 -20 -20 -20 -20 -20 -20 -20 -5 -20 -20 -20 -20 -17 -12 -8 0 -5 -20 -4 0 1 2 4 -20 -6 -10 -19 -17 8 13 6 -1
-20 -20 -20 -18 -20 -18 -20 -20 -20 -20 -20 -20 -20 -20 -20 -20 -20 -20 -20 -20 -20 -20 -20 -20 -20 -16 -4 -6 -6 -5 2 -1 2 -6 -2 -20 -20 -20 -20 -3 -7 15 15 16
Wind_Speed
3 10 13 15 12 6 1 6 6 1 2 7 8 9 9 9 10 10 14 15 15 16 13 13 12 12 11 11 11 10 10 7 4 5 4 5 3 4 7 4 7 8 2 6
7 13 3 3 4 8 10 11 8 3 2 7 1 7 3 4 6 8 12 15 17 16 14 12 12 12 11 11 11 11 10 9 7 4 1 2 3 5 2 7 4 4 4 5
13 3 7 8 9 11 13 13 6 6 3 3 3 9 8 6 6 5 8 14 17 17 15 13 13 12 11 11 12 11 11 9 6 4 3 4 5 4 6 4 4 3 3 3
10 8 8 9 11 13 14 10 5 6 8 6 2 6 10 3 6 4 4 11 14 16 13 13 12 12 11 10 9 10 10 9 7 6 4 5 5 5 2 3 3 4 4 2
6 13 11 10 11 13 1 6 7 6 8 7 10 7 3 5 6 1 4 4 10 13 15 13 12 11 10 10 10 10 10 8 7 5 4 6 6 4 4 3 3 3 2 4
2 1 5 5 3 8 9 8 7 6 7 11 1 5 10 3 3 2 6 7 7 10 11 9 11 11 11 11 11 11 11 9 8 6 6 4 4 3 3 1 1 0 1 2
12 12 8 7 8 7 13 12 9 9 10 5 5 6 7 4 1 6 6 3 8 8 9 11 13 12 12 12 12 11 10 10 9 9 7 4 5 4 2 2 2 3 2 1
10 13 15 12 13 11 16 13 9 5 7 4 5 6 3 2 3 2 2 5 9 8 9 11 12 12 12 12 12 11 11 12 11 11 8 5 6 4 4 2 1 1 1 2
9 10 6 4 4 9 9 11 6 5 1 9 5 4 5 2 3 4 7 10 9 7 8 9 11 11 11 11 11 11 11 12 11 11 8 9 8 4 5 4 3 2 0 4
3 8 9 9 7 3 7 8 8 8 6 9 7 4 2 5 7 7 8 10 8 6 7 9 10 11 11 11 10 10 10 11 10 10 7 7 6 7 6 4 3 3 4 5
10 7 11 7 12 13 8 10 9 6 5 5 5 7 6 1 4 8 8 7 7 5 7 8 9 10 10 11 10 11 10 9 8 8 5 4 1 7 6 4 3 4 5 6
14 10 9 15 8 4 7 12 15 10 10 8 8 2 5 3 7 6 8 7 5 4 7 8 10 11 10 11 11 12 11 10 9 10 7 8 11 8 7 5 5 4 5 7
11 9 10 12 8 6 9 11 11 9 5 7 10 4 6 6 5 4 8 6 5 3 6 9 9 10 11 11 10 12 11 11 12 12 13 12 10 9 8 7 6 5 6 8
6 13 13 10 13 10 10 11 13 16 9 9 12 3 9 5 4 9 7 6 4 3 6 7 8 10 10 11 10 11 12 12 14 10 9 10 10 10 9 7 6 6 6 7
8 11 15 16 5 6 10 10 14 15 11 8 9 10 9 5 4 8 8 6 5 3 4 6 9 11 11 11 9 9 11 12 12 11 10 10 9 9 8 8 8 7 6 7
8 10 11 18 14 14 10 9 9 9 6 3 3 7 6 5 8 9 8 7 4 3 3 5 8 11 12 11 10 10 11 14 11 12 10 9 9 9 9 9 8 8 8 7
8 9 9 15 11 14 16 15 13 11 9 8 8 7 5 6 7 8 8 5 3 3 2 4 7 9 10 10 10 12 11 13 10 9 10 10 10 10 9 9 9 9 8 7
8 11 7 9 8 15 4 1 11 12 9 6 7 6 3 7 8 6 3 4 4 4 2 3 5 8 9 9 9 10 11 13 12 9 10 10 10 7 6 7 7 5 6 7
8 11 6 7 13 4 8 7 7 12 9 3 3 8 9 9 11 8 4 4 3 3 2 3 5 4 9 9 9 9 10 13 12 10 10 10 10 9 7 8 10 7 7 6
6 7 9 8 11 11 10 7 3 4 8 5 5 9 12 12 10 6 5 2 2 3 4 4 4 7 8 8 8 8 9 10 11 10 9 9 10 10 9 7 10 10 7 7
8 6 9 9 7 9 5 2 3 10 7 4 4 8 12 10 7 12 8 5 3 5 5 4 4 5 6 7 9 9 8 9 3 5 8 9 10 9 9 9 6 6 7 8
6 5 5 1 4 7 7 4 4 7 3 5 3 6 7 10 9 8 7 6 6 7 8 6 5 6 5 4 6 7 6 6 6 7 6 6 7 7 9 12 10 9 8 8
3 7 3 7 7 5 4 5 4 4 3 5 3 6 8 9 8 6 5 4 4 4 7 6 6 7 7 5 2 7 7 7 6 7 7 7 5 6 7 8 10 7 9 7
3 2 1 3 5 3 3 3 4 2 4 2 5 5 5 6 4 4 3 3 3 4 5 5 5 6 7 6 5 4 5 6 7 6 5 4 4 3 4 5 5 6 7 7
7 2 2 2 4 2 3 4 4 5 2 4 4 5 4 4 4 3 4 4 4 4 5 5 5 4 5 6 5 4 4 4 5 5 5 4 2 2 3 5 4 3 3 5
1 5 5 5 5 5 5 4 2 3 5 6 8 8 5 4 5 3 5 4 3 4 4 3 5 5 4 4 4 3 4 5 6 6 6 3 4 3 3 4 6 17 10 11
Wind_Direction
160 240 219 218 232 318 22 265 272 291 67 285 249 245 245 182 207 197 190 193 198 201 188 187 185 197 200 194 203 203 195 189 235 242 208 139 189 232 212 235 269 239 210 118
222 227 187 2 184 217 229 251 236 161 12 249 191 220 157 207 211 222 192 200 208 200 185 185 190 188 199 193 199 192 195 188 219 244 252 108 198 219 238 222 230 264 228 159
248 113 147 200 187 218 236 250 195 277 168 199 253 214 193 156 210 209 230 212 210 207 186 186 189 192 189 193 198 186 189 191 204 231 177 121 159 238 210 183 177 159 103 70
238 152 206 200 219 223 223 211 223 225 249 240 259 294 178 190 219 212 268 217 216 204 184 183 187 183 190 184 180 173 182 176 177 189 172 175 200 194 202 186 120 106 44 27
156 197 197 216 222 207 115 160 210 218 244 281 199 260 190 170 202 83 40 149 191 189 192 187 182 173 177 156 167 160 162 168 163 171 205 190 197 166 187 180 147 41 51 14
262 297 228 229 109 223 141 154 166 201 255 242 225 274 268 169 28 288 70 105 162 180 178 178 159 156 163 158 155 161 159 166 169 175 177 209 210 205 159 204 180 226 251 103
203 208 189 221 170 180 210 193 223 218 211 253 97 241 297 96 303 320 354 76 145 155 167 160 159 167 167 157 155 156 165 162 161 171 164 176 153 142 121 229 287 269 178 113
210 194 205 191 237 191 210 228 266 244 258 228 134 236 147 45 344 20 46 134 116 139 149 163 165 169 166 158 159 160 164 161 161 164 169 157 157 164 151 253 332 286 77 59
209 227 170 205 192 227 168 222 321 277 178 271 192 188 224 159 166 110 78 94 98 131 138 147 156 165 153 152 157 155 160 164 164 165 169 165 162 173 105 127 207 141 12 113
155 238 192 150 172 127 272 173 194 217 249 257 151 254 260 192 163 114 95 100 111 118 134 150 162 156 147 146 146 136 150 164 172 176 178 160 148 138 130 142 108 94 91 81
229 262 150 183 207 200 177 204 241 309 320 304 230 199 108 338 74 109 104 101 102 118 150 161 162 154 152 146 143 134 137 150 142 131 81 52 74 138 116 121 115 99 89 94
208 223 246 211 107 344 304 250 218 233 184 238 305 340 101 84 113 110 107 102 93 128 152 165 172 167 158 153 141 121 137 141 142 123 157 162 188 136 131 134 123 114 109 95
184 225 216 226 199 192 235 208 242 241 274 192 245 174 116 113 129 118 121 119 121 132 159 165 170 176 169 150 140 148 144 138 146 158 166 180 144 136 137 139 124 112 95 86
250 232 236 249 222 200 196 208 211 215 206 184 224 124 165 104 160 140 135 130 149 163 162 163 175 176 167 138 154 153 143 138 143 164 177 153 147 141 146 138 129 121 113 104
226 227 224 245 267 243 232 201 193 220 236 230 220 201 76 67 63 127 150 146 179 174 163 172 178 177 172 152 165 157 142 147 157 166 180 163 148 146 145 147 139 137 127 117
210 231 223 231 228 244 239 210 195 218 219 259 219 134 62 91 119 135 145 164 167 161 125 168 177 180 176 167 162 150 146 151 160 172 168 163 162 161 154 157 154 146 141 133
199 210 211 219 202 225 231 227 208 205 197 223 217 76 121 126 134 139 139 131 114 102 133 164 187 178 176 171 167 157 159 161 162 173 160 164 172 173 170 174 168 155 147 140
204 203 219 225 183 219 172 271 227 221 213 166 108 57 48 130 116 110 89 123 99 43 11 133 186 178 172 160 166 161 166 171 175 180 173 177 184 181 172 172 174 131 138 147
235 207 179 203 211 127 151 157 177 198 166 170 149 89 131 137 136 123 109 52 15 346 343 290 282 240 157 165 162 161 169 174 186 179 185 191 193 187 177 169 172 157 153 163
169 239 239 198 221 213 92 128 158 201 152 45 90 151 168 185 222 120 133 111 86 35 3 341 262 171 155 155 160 163 174 178 192 179 193 189 191 189 192 174 175 175 181 173
190 219 219 189 218 96 69 87 214 209 81 64 139 160 178 202 22 116 140 141 114 93 59 32 58 106 140 160 168 176 179 198 146 116 190 188 194 186 184 160 177 192 185 162
229 232 172 277 233 139 17 204 271 35 80 42 107 149 149 133 135 147 155 156 143 122 105 89 88 91 93 153 175 177 182 121 135 145 172 185 190 195 188 183 187 185 159 163
186 353 30 345 48 44 14 17 24 350 348 53 102 131 149 158 165 172 165 161 121 97 98 111 104 91 69 56 122 163 153 158 162 163 171 175 190 211 216 226 205 184 165 164
125 342 37 240 86 53 28 40 32 13 11 24 124 159 179 188 178 188 148 124 103 98 84 64 80 80 76 61 85 128 160 159 175 174 185 202 220 226 281 256 181 165 166 159
30 246 44 208 129 217 151 60 19 57 85 105 117 131 169 169 178 155 141 114 100 75 65 46 51 70 90 93 93 122 157 188 184 180 184 188 189 135 94 54 22 127 125 158
28 32 279 18 23 303 72 68 45 120 97 86 94 100 99 114 122 143 112 115 107 101 95 83 94 110 109 113 134 148 162 180 179 182 181 163 147 145 136 113 80 41 63 89